Weather History for Eau Claire, WI

Change the Weather History Date:

Sunday, October 21, 2012

  Actual Average Record
Temperature  
Mean Temperature 48 °F 46 °F  
Max Temperature 66 °F 56 °F 86 °F (1947)
Min Temperature 30 °F 35 °F 15 °F (1960)
Degree Days  
Heating Degree Days 17 20  
Month to date heating degree days 396 334  
Since 1 July heating degree days 637 567  
Cooling Degree Days 0 0  
Month to date cooling degree days 0 0  
Year to date cooling degree days 830 575  
Moisture  
Dew Point 36 °F    
Average Humidity 70    
Maximum Humidity 100    
Minimum Humidity 40    
Precipitation  
Precipitation 0.00 in 0.07 in 1.06 in (1979)
Month to date precipitation 0.40 1.74  
Year to date precipitation 20.57 27.54  
Snow  
Snow 0.00 in 0.00 in 1.70 in (2002)
Month to date snowfall T 0.1  
Since 1 July snowfall T 0.1  
Since 1 September snowfall T 0.1  
Snow Depth 0.00 in    
Sea Level Pressure  
Sea Level Pressure 29.89 in    
Wind  
Wind Speed 5 mph (East)    
Max Wind Speed 18 mph    
Max Gust Speed 22 mph    
Visibility 6 miles    
Events      
T = Trace of Precipitation, MM = Missing Value Source: NWS Daily Summary

Daily Weather History Graph

Daily Weather History Graph

Search for Another Location

Airport:

Trip Planner

Search our weather history database for the weather conditions in past years. The results will help you decide how hot, cold, wet, or windy it might be!

Date:

Astronomy

Oct. 21, 2012 Rise Set
Actual Time 7:29 AM CDT 6:10 PM CDT
Civil Twilight 7:00 AM CDT 6:40 PM CDT
Nautical Twilight 6:26 AM CDT 7:14 PM CDT
Astronomical Twilight 5:52 AM CDT 7:47 PM CDT
Moon 1:56 PM CDT (10/21) No Moon Set
Length of Visible Light 11h 39m
Length of Day
10h 40m
Waxing Crescent, 45% of the Moon is Illuminated
Oct 21
Waxing Crescent
Oct 21
First Quarter
Oct 29
Full
Nov 6
Last Quarter
Nov 13
New

Hourly Weather History & Observations

Time (CDT) Temp. Windchill Dew Point Humidity Pressure Visibility Wind Dir Wind Speed Gust Speed Precip Events Conditions
12:56 AM 34.0 °F - 33.1 °F 96% 29.88 in 6.0 mi Calm Calm - N/A   Clear
1:56 AM 33.1 °F - 32.0 °F 96% 29.89 in 4.0 mi Calm Calm - N/A   Clear
2:06 AM 33.8 °F - 33.8 °F 100% 29.87 in 2.5 mi Calm Calm - N/A   Clear
2:16 AM 33.8 °F - 32.0 °F 93% 29.87 in 6.0 mi Calm Calm - N/A   Clear
2:56 AM 34.0 °F - 33.1 °F 96% 29.90 in 10.0 mi Calm Calm - N/A   Clear
3:56 AM 32.0 °F - 32.0 °F 100% 29.90 in 5.0 mi Calm Calm - N/A   Clear
4:24 AM 32.0 °F - 30.2 °F 93% 29.88 in 1.8 mi Calm Calm - N/A   Clear
4:34 AM 30.2 °F - 30.2 °F 100% 29.88 in 3.0 mi Calm Calm - N/A   Clear
4:56 AM 30.9 °F 27.5 °F 30.0 °F 96% 29.91 in 3.0 mi North 3.5 mph - N/A   Clear
5:56 AM 30.9 °F - 30.9 °F 100% 29.91 in 3.0 mi Calm Calm - N/A   Clear
6:00 AM 30.2 °F - 30.2 °F 100% 29.89 in 1.8 mi Calm Calm - N/A   Clear
6:11 AM 32.0 °F - 30.2 °F 93% 29.89 in 3.0 mi Calm Calm - N/A   Clear
6:18 AM 32.0 °F - 30.2 °F 93% 29.89 in 2.0 mi Calm Calm - N/A   Clear
6:28 AM 32.0 °F - 30.2 °F 93% 29.89 in 5.0 mi Calm Calm - N/A   Clear
6:56 AM 30.0 °F - 28.9 °F 96% 29.91 in 3.0 mi Calm Calm - N/A   Clear
6:59 AM 30.2 °F - 30.2 °F 100% 29.89 in 1.8 mi Calm Calm - N/A   Clear
7:10 AM 30.2 °F - 30.2 °F 100% 29.89 in 3.0 mi Calm Calm - N/A   Clear
7:56 AM 34.0 °F 31.0 °F 33.1 °F 96% 29.92 in 5.0 mi NNE 3.5 mph - N/A   Clear
8:56 AM 42.1 °F - 37.9 °F 85% 29.93 in 10.0 mi Calm Calm - N/A   Clear
9:56 AM 46.9 °F - 39.9 °F 77% 29.91 in 10.0 mi SSE 9.2 mph - N/A   Clear
11:56 AM 57.9 °F - 44.1 °F 60% 29.90 in 10.0 mi SE 10.4 mph - N/A   Clear
12:56 PM 62.1 °F - 43.0 °F 50% 29.87 in 10.0 mi SE 12.7 mph - N/A   Clear
1:56 PM 62.1 °F - 42.1 °F 48% 29.86 in 10.0 mi ESE 12.7 mph - N/A   Clear
2:56 PM 66.0 °F - 41.0 °F 40% 29.84 in 10.0 mi SE 13.8 mph 21.9 mph N/A   Clear
3:56 PM 64.9 °F - 42.1 °F 43% 29.83 in 10.0 mi SE 11.5 mph 18.4 mph N/A   Clear
5:56 PM 63.0 °F - 44.1 °F 50% 29.85 in 10.0 mi East 6.9 mph - N/A   Clear
6:56 PM 57.9 °F - 43.0 °F 58% 29.86 in 10.0 mi ESE 4.6 mph - N/A   Clear
7:56 PM 55.0 °F - 42.1 °F 62% 29.87 in 10.0 mi Calm Calm - N/A   Clear
8:56 PM 54.0 °F - 43.0 °F 66% 29.88 in 10.0 mi Calm Calm - N/A   Clear
9:56 PM 50.0 °F - 42.1 °F 74% 29.91 in 10.0 mi NE 4.6 mph - N/A   Clear
11:56 PM 50.0 °F - 44.1 °F 80% 29.92 in 10.0 mi NNE 4.6 mph - N/A   Clear